Weather History for Sacramento, CA

Change the Weather History Date:

Sunday, October 13, 2013

  Actual Average Record
Temperature  
Mean Temperature 65 °F -  
Max Temperature 77 °F 79 °F 94 °F (1991)
Min Temperature 52 °F 51 °F 43 °F (2008)
Degree Days  
Heating Degree Days 0    
Cooling Degree Days 0    
Growing Degree Days 14 (Base 50)    
Moisture  
Dew Point 39 °F    
Average Humidity 46    
Maximum Humidity 71    
Minimum Humidity 21    
Precipitation  
Precipitation 0.00 in 0.03 in 3.77 in (1962)
Month to date precipitation 0.00 0.25  
Year to date precipitation 4.50 12.49  
Since 1 July precipitation 0.59 0.59  
Sea Level Pressure  
Sea Level Pressure 29.97 in    
Wind  
Wind Speed 6 mph (NNW)    
Max Wind Speed 17 mph    
Max Gust Speed 24 mph    
Visibility 10 miles    
Events      
T = Trace of Precipitation, MM = Missing Value Source: NWS Daily Summary

Daily Weather History Graph

Daily Weather History Graph

Search for Another Location

Airport:

Trip Planner

Search our weather history database for the weather conditions in past years. The results will help you decide how hot, cold, wet, or windy it might be!

Date:

Astronomy

Oct. 13, 2013 Rise Set
Actual Time 7:13 AM PDT 6:30 PM PDT
Civil Twilight 6:46 AM PDT 6:56 PM PDT
Nautical Twilight 6:16 AM PDT 7:27 PM PDT
Astronomical Twilight 5:45 AM PDT 7:58 PM PDT
Moon 3:21 PM PDT (10/13) 1:33 AM PDT (10/13)
Length of Visible Light 12h 10m
Length of Day
11h 16m
Waxing Gibbous, 70% of the Moon is Illuminated
Oct 13
Waxing Gibbous
Oct 18
Full
Oct 26
Last Quarter
Nov 3
New
Nov 9
First Quarter

Hourly Weather History & Observations

Time (PDT) Temp. Dew Point Humidity Pressure Visibility Wind Dir Wind Speed Gust Speed Precip Events Conditions
12:53 AM 54.0 °F 44.1 °F 69% 29.89 in 10.0 mi ENE 5.8 mph - N/A   Clear
1:53 AM 54.0 °F 45.0 °F 72% 29.90 in 10.0 mi NNW 6.9 mph - N/A   Clear
2:53 AM 55.0 °F 44.1 °F 67% 29.91 in 10.0 mi Calm Calm - N/A   Partly Cloudy
3:53 AM 55.0 °F 45.0 °F 69% 29.91 in 10.0 mi NNW 8.1 mph - N/A   Clear
4:53 AM 53.1 °F 44.1 °F 71% 29.93 in 10.0 mi Calm Calm - N/A   Clear
5:53 AM 52.0 °F 43.0 °F 71% 29.94 in 10.0 mi NNW 5.8 mph - N/A   Clear
6:53 AM 54.0 °F 39.9 °F 59% 29.95 in 10.0 mi NNW 9.2 mph - N/A   Clear
7:53 AM 54.0 °F 39.9 °F 59% 29.97 in 10.0 mi Calm Calm - N/A   Clear
8:53 AM 57.9 °F 39.0 °F 49% 29.99 in 10.0 mi NNW 10.4 mph - N/A   Clear
9:53 AM 62.1 °F 37.9 °F 41% 30.00 in 10.0 mi NNW 13.8 mph - N/A   Clear
10:53 AM 66.0 °F 37.0 °F 34% 30.00 in 10.0 mi NNW 12.7 mph - N/A   Clear
11:53 AM 69.1 °F 36.0 °F 30% 30.00 in 10.0 mi NW 10.4 mph 20.7 mph N/A   Clear
12:53 PM 73.9 °F 36.0 °F 25% 29.99 in 10.0 mi NW 9.2 mph 19.6 mph N/A   Clear
1:53 PM 73.9 °F 36.0 °F 25% 29.98 in 10.0 mi NNW 11.5 mph - N/A   Clear
2:53 PM 75.9 °F 36.0 °F 23% 29.97 in 10.0 mi NW 12.7 mph - N/A   Clear
3:53 PM 75.9 °F 35.1 °F 23% 29.97 in 10.0 mi NNW 12.7 mph - N/A   Clear
4:53 PM 75.9 °F 34.0 °F 22% 29.98 in 10.0 mi NW 11.5 mph - N/A   Clear
5:53 PM 73.9 °F 33.1 °F 22% 29.98 in 10.0 mi NW 8.1 mph - N/A   Clear
6:53 PM 66.0 °F 37.0 °F 34% 29.99 in 10.0 mi West 5.8 mph - N/A   Clear
7:53 PM 66.0 °F 37.0 °F 34% 30.01 in 10.0 mi NW 5.8 mph - N/A   Clear
8:53 PM 59.0 °F 39.9 °F 49% 30.02 in 10.0 mi Calm Calm - N/A   Clear
9:53 PM 55.9 °F 41.0 °F 57% 30.03 in 10.0 mi Calm Calm - N/A   Clear
10:53 PM 55.9 °F 41.0 °F 57% 30.03 in 10.0 mi Calm Calm - N/A   Clear
11:53 PM 55.0 °F 37.9 °F 53% 30.04 in 10.0 mi Calm Calm - N/A   Clear